Alliance, NE

11:30 AM MDT on October 19, 2017 (GMT -0600)
Alliance Municipal

Weather History for KAIA - April, 2012

Change the Weather History Date:

Monday, April 16, 2012

  Actual Average Record
Temperature  
Mean Temperature 39 °F 45 °F  
Max Temperature 54 °F 60 °F 82 °F (1964)
Min Temperature 24 °F 30 °F 10 °F (1951)
Degree Days  
Heating Degree Days 26 20  
Month to date heating degree days 307 351  
Since 1 July heating degree days 6079 6637  
Cooling Degree Days 0 0  
Month to date cooling degree days 0 0  
Year to date cooling degree days 0 0  
Moisture  
Dew Point 31 °F    
Average Humidity 67    
Maximum Humidity 92    
Minimum Humidity 41    
Precipitation  
Precipitation 0.03 in 0.06 in 1.11 in (2009)
Month to date precipitation 0.46 0.72  
Year to date precipitation 1.32 2.13  
Sea Level Pressure  
Sea Level Pressure 30.11 in    
Wind  
Wind Speed 7 mph (West)    
Max Wind Speed 21 mph    
Max Gust Speed 28 mph    
Visibility 9 miles    
Events Snow    
T = Trace of Precipitation, MM = Missing Value Source: NWS Daily Summary

Daily Weather History Graph

Daily Weather History Graph

Search for Another Location

Airport or City:

Trip Planner

Search our weather history database for the weather conditions in past years. The results will help you decide how hot, cold, wet, or windy it might be!

Date:

Astronomy

Apr. 16, 2012 Rise Set
Actual Time 6:08 AM MDT 7:34 PM MDT
Civil Twilight 5:39 AM MDT 8:03 PM MDT
Nautical Twilight 5:04 AM MDT 8:38 PM MDT
Astronomical Twilight 4:26 AM MDT 9:15 PM MDT
Moon 3:42 AM MDT (4/16) 3:27 PM MDT (4/16)
Length of Visible Light 14h 24m
Length of Day
13h 25m
Waning Crescent, 18% of the Moon is Illuminated
Apr 16
Waning Crescent
Apr 21
New
Apr 29
First Quarter
May 5
Full
May 12
Last Quarter

Hourly Weather History & Observations

Time (MDT) Temp. Windchill Dew Point Humidity Pressure Visibility Wind Dir Wind Speed Gust Speed Precip Events Conditions
12:53 AM 28.9 °F 21.1 °F 27.0 °F 92% 30.04 in 10.0 mi West 8.1 mph - N/A   Clear
2:53 AM 28.0 °F 20.8 °F 26.1 °F 92% 30.05 in 10.0 mi West 6.9 mph - N/A   Mostly Cloudy
3:53 AM 28.0 °F 22.8 °F 26.1 °F 92% 30.06 in 10.0 mi Variable 4.6 mph - N/A   Clear
4:53 AM 24.1 °F 17.0 °F 21.9 °F 91% 30.08 in 10.0 mi West 5.8 mph - N/A   Clear
5:53 AM 28.9 °F - 26.1 °F 89% 30.07 in 10.0 mi Calm Calm - N/A   Overcast
6:53 AM 32.0 °F 28.7 °F 30.0 °F 92% 30.10 in 10.0 mi WSW 3.5 mph - N/A   Overcast
7:25 AM 33.8 °F 27.7 °F 30.2 °F 87% 30.09 in 2.5 mi WNW 6.9 mph - 0.01 in Snow Light Snow
7:43 AM 33.8 °F 28.6 °F 30.2 °F 87% 30.10 in 1.2 mi West 5.8 mph - 0.01 in Snow Light Snow
7:53 AM 33.1 °F 28.7 °F 30.9 °F 92% 30.14 in 1.8 mi West 4.6 mph - 0.01 in Snow Light Snow
8:01 AM 33.8 °F 29.6 °F 32.0 °F 93% 30.10 in 2.5 mi WSW 4.6 mph - 0.01 in Snow Light Snow
8:10 AM 33.8 °F 27.7 °F 32.0 °F 93% 30.10 in 6.0 mi WSW 6.9 mph - 0.01 in Snow Light Snow
8:28 AM 35.6 °F 30.7 °F 33.8 °F 93% 30.11 in 10.0 mi West 5.8 mph - 0.01 in   Overcast
8:34 AM 35.6 °F 29.9 °F 33.8 °F 93% 30.11 in 9.0 mi West 6.9 mph - 0.01 in Snow Light Snow
8:53 AM 35.6 °F 30.7 °F 33.8 °F 93% 30.11 in 9.0 mi West 5.8 mph - N/A   Overcast
9:38 AM 39.2 °F 33.0 °F 35.6 °F 87% 30.12 in 10.0 mi West 9.2 mph - N/A   Mostly Cloudy
9:53 AM 39.9 °F 34.5 °F 34.0 °F 79% 30.14 in 10.0 mi West 8.1 mph - N/A   Mostly Cloudy
10:53 AM 43.0 °F 40.3 °F 32.0 °F 65% 30.14 in 10.0 mi West 4.6 mph - N/A   Overcast
11:16 AM 42.8 °F 38.6 °F 32.0 °F 66% 30.13 in 10.0 mi West 6.9 mph - N/A   Overcast
11:28 AM 44.6 °F 39.2 °F 33.8 °F 66% 30.13 in 10.0 mi West 10.4 mph - N/A   Overcast
11:36 AM 44.6 °F 39.2 °F 32.0 °F 61% 30.13 in 10.0 mi WSW 10.4 mph - N/A   Overcast
11:53 AM 46.9 °F - 33.1 °F 59% 30.14 in 10.0 mi West 11.5 mph 19.6 mph N/A   Mostly Cloudy
12:53 PM 48.0 °F - 30.0 °F 50% 30.14 in 10.0 mi WNW 8.1 mph 16.1 mph N/A   Mostly Cloudy
1:53 PM 50.0 °F - 30.9 °F 48% 30.12 in 10.0 mi WSW 12.7 mph 18.4 mph N/A   Mostly Cloudy
2:53 PM 48.9 °F - 35.1 °F 59% 30.12 in 10.0 mi NNW 6.9 mph - 0.00 in   Mostly Cloudy
3:53 PM 53.1 °F - 32.0 °F 45% 30.10 in 10.0 mi NNE 8.1 mph - N/A   Mostly Cloudy
4:53 PM 53.1 °F - 30.0 °F 41% 30.11 in 10.0 mi Calm Calm - N/A   Partly Cloudy
5:53 PM 53.1 °F - 32.0 °F 45% 30.10 in 10.0 mi ENE 6.9 mph - N/A   Partly Cloudy
6:53 PM 50.0 °F - 32.0 °F 50% 30.10 in 10.0 mi ENE 5.8 mph - N/A   Clear
7:53 PM 41.0 °F 35.2 °F 32.0 °F 70% 30.13 in 10.0 mi ESE 9.2 mph - N/A   Mostly Cloudy
8:53 PM 35.1 °F 27.9 °F 30.0 °F 82% 30.14 in 10.0 mi SE 9.2 mph - N/A   Clear
9:53 PM 37.0 °F 32.4 °F 30.9 °F 79% 30.13 in 10.0 mi SE 5.8 mph - N/A   Clear
10:53 PM 34.0 °F 26.6 °F 30.9 °F 89% 30.13 in 10.0 mi SSE 9.2 mph - N/A   Clear
11:53 PM 33.1 °F 26.1 °F 30.9 °F 92% 30.12 in 10.0 mi SE 8.1 mph - N/A   Clear